Youngstown, OH

6:12 AM EST on December 13, 2019 (GMT -0500)
Youngstown-Warren Regional

Weather History for KYNG - September, 2019

Change the Weather History Date:

Thursday, September 5, 2019

  Actual Average Record
Temperature  
Mean Temperature 61 °F 66 °F  
Max Temperature 73 °F 77 °F 99 °F (1954)
Min Temperature 48 °F 55 °F 41 °F (1974)
Degree Days  
Heating Degree Days 4 2  
Month to date heating degree days 4 10  
Since 1 July heating degree days 10 48  
Cooling Degree Days 0 3  
Month to date cooling degree days 14 15  
Year to date cooling degree days 678 501  
Growing Degree Days 11 (Base 50)    
Moisture  
Dew Point 52 °F    
Average Humidity 72    
Maximum Humidity 96    
Minimum Humidity 41    
Precipitation  
Precipitation 0.00 in 0.13 in 0.68 in (1975)
Month to date precipitation 0.67 0.62  
Year to date precipitation 35.19 26.84  
Snow  
Snow 0.00 in 0.00 in - ()
Month to date snowfall 0.0 0.0  
Since 1 July snowfall 0.0 0.0  
Since 1 September snowfall 0.0 0.0  
Snow Depth 0.00 in    
Sea Level Pressure  
Sea Level Pressure 30.10 in    
Wind  
Wind Speed 5 mph ()    
Max Wind Speed 12 mph    
Max Gust Speed 15 mph    
Visibility 10.0 miles    
Events Fog    
T = Trace of Precipitation, MM = Missing Value Source: Averaged Metar Reports

Daily Weather History Graph

Daily Weather History Graph

Search for Another Location

Airport or City:

Astronomy

Sep. 05, 2019 Rise Set
Actual Time 6:52 AM EDT 7:49 PM EDT
Civil Twilight 6:24 AM EDT 8:17 PM EDT
Nautical Twilight 5:51 AM EDT 8:50 PM EDT
Astronomical Twilight 5:16 AM EDT 9:25 PM EDT
Moon 2:02 PM EDT (9/5) 11:59 PM EDT (9/5)
Length of Visible Light 13h 52m
Length of Day
12h 56m
Waxing Crescent, 45% of the Moon is Illuminated
Sep 5
Waxing Crescent
Sep 5
First Quarter
Sep 14
Full
Sep 21
Last Quarter
Sep 28
New

Hourly Weather History & Observations

Time (EDT) Temp. Dew Point Humidity Pressure Visibility Wind Dir Wind Speed Gust Speed Precip Events Conditions
12:51 AM 54.0 °F 52.0 °F 93% 30.12 in 10.0 mi NE 4.6 mph - N/A   Partly Cloudy
1:51 AM 55.9 °F 52.0 °F 87% 30.11 in 10.0 mi NNE 5.8 mph - N/A   Clear
2:51 AM 52.0 °F 48.9 °F 89% 30.10 in 10.0 mi NNE 5.8 mph - N/A   Clear
3:51 AM 53.1 °F 50.0 °F 89% 30.10 in 10.0 mi NNE 5.8 mph - N/A   Clear
4:51 AM 52.0 °F 50.0 °F 93% 30.12 in 10.0 mi ENE 3.5 mph - N/A   Clear
6:51 AM 48.9 °F 46.9 °F 93% 30.14 in 10.0 mi ESE 3.5 mph - N/A Fog Shallow Fog
7:51 AM 54.0 °F 51.1 °F 90% 30.14 in 10.0 mi Calm Calm - N/A   Partly Cloudy
8:51 AM 60.1 °F 54.0 °F 80% 30.15 in 10.0 mi NNE 6.9 mph - N/A   Partly Cloudy
9:51 AM 64.0 °F 53.1 °F 67% 30.16 in 10.0 mi NNE 8.1 mph - N/A   Partly Cloudy
10:51 AM 64.9 °F 53.1 °F 65% 30.14 in 10.0 mi North 4.6 mph - N/A   Scattered Clouds
11:51 AM 69.1 °F 51.1 °F 53% 30.14 in 10.0 mi North 5.8 mph - N/A   Scattered Clouds
12:51 PM 70.0 °F 50.0 °F 49% 30.12 in 10.0 mi Calm Calm - N/A   Scattered Clouds
1:51 PM 72.0 °F 51.1 °F 48% 30.11 in 10.0 mi NW 6.9 mph - N/A   Partly Cloudy
2:51 PM 73.0 °F 50.0 °F 44% 30.09 in 10.0 mi North 6.9 mph - N/A   Partly Cloudy
3:51 PM 73.9 °F 50.0 °F 43% 30.08 in 10.0 mi North 5.8 mph - N/A   Partly Cloudy
4:51 PM 73.0 °F 48.9 °F 42% 30.08 in 10.0 mi NNE 9.2 mph - N/A   Scattered Clouds
5:51 PM 73.0 °F 51.1 °F 46% 30.06 in 10.0 mi NNW 8.1 mph - N/A   Scattered Clouds
7:51 PM 64.0 °F 55.0 °F 73% 30.07 in 10.0 mi North 6.9 mph - N/A   Partly Cloudy
8:51 PM 61.0 °F 55.0 °F 81% 30.07 in 10.0 mi North 8.1 mph - N/A   Clear
9:51 PM 60.1 °F 54.0 °F 80% 30.06 in 10.0 mi NNE 8.1 mph - N/A   Clear
10:51 PM 57.9 °F 54.0 °F 87% 30.06 in 10.0 mi ENE 5.8 mph - N/A   Clear
11:51 PM 57.0 °F 52.0 °F 83% 30.03 in 10.0 mi ENE 3.5 mph - N/A   Clear